Time,TemperatureF,DewpointF,PressureIn,WindDirection,WindDirectionDegrees,WindSpeedMPH,WindSpeedGustMPH,Humidity,HourlyPrecipIn,Conditions,Clouds,dailyrainin,SolarRadiationWatts/m^2,SoftwareType,DateUTC
2013-09-21 00:00:00,53.4,49.6,30.05,South,187,1.0,3.0,87,0.00,RA,,0.00,0.0,WeatherDisplay:10.37,2013-09-20 23:00:00,
2013-09-21 00:05:00,53.3,49.8,30.05,SSW,195,1.0,4.0,88,0.00,RA,,0.00,0.0,WeatherDisplay:10.37,2013-09-20 23:05:00,
2013-09-21 00:10:00,53.2,49.7,30.04,South,179,2.0,8.0,88,0.00,RA,,0.00,0.0,WeatherDisplay:10.37,2013-09-20 23:10:00,
2013-09-21 00:15:00,53.2,49.7,30.04,SSE,164,0.0,5.0,88,0.00,CLR,,0.00,0.0,WeatherDisplay:10.37,2013-09-20 23:15:00,
2013-09-21 00:20:00,53.1,49.6,30.04,South,171,2.0,6.0,88,0.00,CLR,,0.00,0.0,WeatherDisplay:10.37,2013-09-20 23:20:00,
2013-09-21 00:25:00,53.0,49.6,30.04,SSE,163,3.0,7.0,88,0.00,CLR,,0.00,0.0,WeatherDisplay:10.37,2013-09-20 23:25:00,
2013-09-21 00:30:00,53.0,49.5,30.04,South,181,6.0,10.0,88,0.00,CLR,,0.00,0.0,WeatherDisplay:10.37,2013-09-20 23:30:00,
2013-09-21 00:35:00,52.9,49.4,30.04,South,186,7.0,12.0,88,0.00,CLR,,0.00,0.0,WeatherDisplay:10.37,2013-09-20 23:35:00,
2013-09-21 00:40:00,52.9,49.4,30.04,South,185,6.0,12.0,88,0.00,CLR,,0.00,0.0,WeatherDisplay:10.37,2013-09-20 23:40:00,
2013-09-21 00:45:00,52.9,49.4,30.03,South,187,5.0,12.0,88,0.00,CLR,,0.00,0.0,WeatherDisplay:10.37,2013-09-20 23:45:00,
2013-09-21 00:50:00,52.9,49.4,30.03,SSW,192,3.0,10.0,88,0.00,CLR,,0.00,0.0,WeatherDisplay:10.37,2013-09-20 23:50:00,
2013-09-21 01:00:00,52.8,49.3,30.04,SSW,199,3.0,12.0,88,0.00,CLR,,0.00,0.0,WeatherDisplay:10.37,2013-09-21 00:00:00,
2013-09-21 01:05:00,52.8,49.3,30.04,SSW,194,2.0,14.0,88,0.00,CLR,,0.00,0.0,WeatherDisplay:10.37,2013-09-21 00:05:00,
2013-09-21 01:10:00,52.8,49.3,30.03,South,185,5.0,7.0,88,0.00,CLR,,0.00,0.0,WeatherDisplay:10.37,2013-09-21 00:10:00,
2013-09-21 01:15:00,52.8,49.3,30.04,South,177,2.0,12.0,88,0.00,CLR,,0.00,0.0,WeatherDisplay:10.37,2013-09-21 00:15:00,
2013-09-21 01:20:00,52.8,49.3,30.04,South,185,6.0,12.0,88,0.00,CLR,,0.00,0.0,WeatherDisplay:10.37,2013-09-21 00:20:00,
2013-09-21 01:25:00,52.8,49.3,30.04,SSW,193,3.0,12.0,88,0.00,CLR,,0.00,0.0,WeatherDisplay:10.37,2013-09-21 00:25:00,
2013-09-21 01:30:00,52.8,49.3,30.04,South,191,5.0,14.0,88,0.00,CLR,,0.00,0.0,WeatherDisplay:10.37,2013-09-21 00:30:00,
2013-09-21 01:35:00,52.8,49.3,30.04,SSW,199,5.0,9.0,88,0.00,CLR,,0.00,0.0,WeatherDisplay:10.37,2013-09-21 00:35:00,
2013-09-21 01:40:00,52.8,49.3,30.04,SSW,201,6.0,13.0,88,0.00,CLR,,0.00,0.0,WeatherDisplay:10.37,2013-09-21 00:40:00,
2013-09-21 01:45:00,52.7,49.3,30.04,SSW,203,5.0,12.0,88,0.00,CLR,,0.00,0.0,WeatherDisplay:10.37,2013-09-21 00:45:00,
2013-09-21 01:50:00,52.7,49.3,30.04,SSW,202,3.0,8.0,88,0.00,CLR,,0.00,0.0,WeatherDisplay:10.37,2013-09-21 00:50:00,
2013-09-21 01:55:00,52.7,49.2,30.04,SSW,196,3.0,9.0,88,0.00,CLR,,0.00,0.0,WeatherDisplay:10.37,2013-09-21 00:55:00,
2013-09-21 02:00:00,52.6,49.4,30.04,South,191,3.0,12.0,89,0.00,CLR,,0.00,0.0,WeatherDisplay:10.37,2013-09-21 01:00:00,
2013-09-21 02:05:00,52.6,49.4,30.04,SSW,202,6.0,12.0,89,0.00,CLR,,0.00,0.0,WeatherDisplay:10.37,2013-09-21 01:05:00,
2013-09-21 02:10:00,52.6,49.4,30.04,SSW,203,2.0,12.0,89,0.00,CLR,,0.00,0.0,WeatherDisplay:10.37,2013-09-21 01:10:00,
2013-09-21 02:15:00,52.6,49.4,30.05,SSW,202,6.0,12.0,89,0.00,CLR,,0.00,0.0,WeatherDisplay:10.37,2013-09-21 01:15:00,
2013-09-21 02:20:00,52.6,49.4,30.05,SSW,203,7.0,12.0,89,0.00,CLR,,0.00,0.0,WeatherDisplay:10.37,2013-09-21 01:20:00,
2013-09-21 02:25:00,52.6,49.4,30.05,SSW,202,5.0,12.0,89,0.00,CLR,,0.00,0.0,WeatherDisplay:10.37,2013-09-21 01:25:00,
2013-09-21 02:30:00,52.6,49.4,30.05,SSW,201,5.0,10.0,89,0.00,CLR,,0.00,0.0,WeatherDisplay:10.37,2013-09-21 01:30:00,
2013-09-21 02:35:00,52.6,49.4,30.05,SSW,197,5.0,12.0,89,0.00,CLR,,0.00,0.0,WeatherDisplay:10.37,2013-09-21 01:35:00,
2013-09-21 02:45:00,52.5,49.4,30.05,SSW,196,5.0,9.0,89,0.00,CLR,,0.00,0.0,WeatherDisplay:10.37,2013-09-21 01:45:00,
2013-09-21 02:50:00,52.5,49.3,30.05,SSW,194,2.0,6.0,89,0.00,CLR,,0.00,0.0,WeatherDisplay:10.37,2013-09-21 01:50:00,
2013-09-21 02:55:00,52.4,49.6,30.06,SSW,199,5.0,9.0,90,0.00,CLR,,0.00,0.0,WeatherDisplay:10.37,2013-09-21 01:55:00,
2013-09-21 03:00:00,52.3,49.5,30.05,SSW,196,5.0,11.0,90,0.00,CLR,,0.00,0.0,WeatherDisplay:10.37,2013-09-21 02:00:00,
2013-09-21 03:05:00,52.2,49.4,30.06,SSW,201,3.0,8.0,90,0.00,CLR,,0.00,0.0,WeatherDisplay:10.37,2013-09-21 02:05:00,
2013-09-21 03:10:00,52.1,49.3,30.05,SSW,206,5.0,12.0,90,0.00,CLR,,0.00,0.0,WeatherDisplay:10.37,2013-09-21 02:10:00,
2013-09-21 03:15:00,52.1,49.2,30.05,SSW,206,3.0,12.0,90,0.00,CLR,,0.00,0.0,WeatherDisplay:10.37,2013-09-21 02:15:00,
2013-09-21 03:20:00,51.9,49.1,30.05,SSW,204,6.0,12.0,90,0.00,CLR,,0.00,0.0,WeatherDisplay:10.37,2013-09-21 02:20:00,
2013-09-21 03:25:00,51.8,49.0,30.05,SSW,204,3.0,9.0,90,0.00,CLR,,0.00,0.0,WeatherDisplay:10.37,2013-09-21 02:25:00,
2013-09-21 03:30:00,51.7,48.9,30.05,SSW,203,3.0,10.0,90,0.00,CLR,,0.00,0.0,WeatherDisplay:10.37,2013-09-21 02:30:00,
2013-09-21 03:35:00,51.5,48.7,30.04,SSW,195,3.0,10.0,90,0.00,CLR,,0.00,0.0,WeatherDisplay:10.37,2013-09-21 02:35:00,
2013-09-21 03:40:00,51.4,48.8,30.05,SSW,200,5.0,10.0,91,0.00,CLR,,0.00,0.0,WeatherDisplay:10.37,2013-09-21 02:40:00,
2013-09-21 03:45:00,51.2,48.7,30.05,SSW,199,3.0,7.0,91,0.00,CLR,,0.00,0.0,WeatherDisplay:10.37,2013-09-21 02:45:00,
2013-09-21 03:50:00,51.0,48.5,30.05,SSW,194,2.0,9.0,91,0.00,CLR,,0.00,0.0,WeatherDisplay:10.37,2013-09-21 02:50:00,
2013-09-21 04:00:00,50.9,48.7,30.04,SSW,198,3.0,10.0,92,0.00,CLR,,0.00,0.0,WeatherDisplay:10.37,2013-09-21 03:00:00,
2013-09-21 04:05:00,50.8,48.6,30.04,SSW,201,5.0,10.0,92,0.00,CLR,,0.00,0.0,WeatherDisplay:10.37,2013-09-21 03:05:00,
2013-09-21 04:10:00,50.7,48.5,30.04,South,190,3.0,9.0,92,0.00,CLR,,0.00,0.0,WeatherDisplay:10.37,2013-09-21 03:10:00,
2013-09-21 04:15:00,50.7,48.5,30.04,SSW,194,5.0,15.0,92,0.00,CLR,,0.00,0.0,WeatherDisplay:10.37,2013-09-21 03:15:00,
2013-09-21 04:25:00,50.6,48.4,30.05,SSW,194,2.0,8.0,92,0.00,CLR,,0.00,0.0,WeatherDisplay:10.37,2013-09-21 03:25:00,
2013-09-21 04:30:00,50.5,48.3,30.05,South,191,2.0,10.0,92,0.00,CLR,,0.00,0.0,WeatherDisplay:10.37,2013-09-21 03:30:00,
2013-09-21 04:35:00,50.4,48.2,30.04,South,172,3.0,8.0,92,0.00,CLR,,0.00,0.0,WeatherDisplay:10.37,2013-09-21 03:35:00,
2013-09-21 04:40:00,50.3,48.1,30.05,South,180,2.0,10.0,92,0.00,CLR,,0.00,0.0,WeatherDisplay:10.37,2013-09-21 03:40:00,
2013-09-21 04:45:00,50.3,48.1,30.05,South,177,3.0,9.0,92,0.00,CLR,,0.00,0.0,WeatherDisplay:10.37,2013-09-21 03:45:00,
2013-09-21 04:50:00,50.3,48.1,30.05,South,175,2.0,10.0,92,0.00,CLR,,0.00,0.0,WeatherDisplay:10.37,2013-09-21 03:50:00,
2013-09-21 04:55:00,50.2,48.3,30.05,South,181,3.0,8.0,93,0.00,CLR,,0.00,0.0,WeatherDisplay:10.37,2013-09-21 03:55:00,
2013-09-21 05:00:00,50.1,48.2,30.05,South,181,2.0,10.0,93,0.00,CLR,,0.00,0.0,WeatherDisplay:10.37,2013-09-21 04:00:00,
2013-09-21 05:05:00,50.0,48.1,30.05,South,187,5.0,10.0,93,0.00,CLR,,0.00,0.0,WeatherDisplay:10.37,2013-09-21 04:05:00,
2013-09-21 05:10:00,50.1,48.2,30.05,South,190,3.0,10.0,93,0.00,CLR,,0.00,0.0,WeatherDisplay:10.37,2013-09-21 04:10:00,
2013-09-21 05:15:00,50.1,48.2,30.04,South,188,3.0,9.0,93,0.00,CLR,,0.00,0.0,WeatherDisplay:10.37,2013-09-21 04:15:00,
2013-09-21 05:20:00,50.1,48.2,30.04,South,191,6.0,12.0,93,0.00,CLR,,0.00,0.0,WeatherDisplay:10.37,2013-09-21 04:20:00,
2013-09-21 05:30:00,50.1,48.2,30.04,SSW,195,5.0,12.0,93,0.00,CLR,,0.00,0.0,WeatherDisplay:10.37,2013-09-21 04:30:00,
2013-09-21 05:35:00,50.1,48.2,30.04,SSW,202,6.0,12.0,93,0.00,CLR,,0.00,0.0,WeatherDisplay:10.37,2013-09-21 04:35:00,
2013-09-21 05:40:00,50.1,48.2,30.05,SSW,200,7.0,10.0,93,0.00,CLR,,0.00,0.0,WeatherDisplay:10.37,2013-09-21 04:40:00,
2013-09-21 05:45:00,50.1,48.2,30.05,SSW,195,5.0,9.0,93,0.00,CLR,,0.00,0.0,WeatherDisplay:10.37,2013-09-21 04:45:00,
2013-09-21 05:50:00,50.1,48.2,30.05,SSW,206,3.0,10.0,93,0.00,CLR,,0.00,0.0,WeatherDisplay:10.37,2013-09-21 04:50:00,
2013-09-21 05:55:00,50.1,48.2,30.05,SSW,210,2.0,9.0,93,0.00,CLR,,0.00,0.0,WeatherDisplay:10.37,2013-09-21 04:55:00,
2013-09-21 06:00:00,50.1,48.2,30.05,SSW,203,3.0,9.0,93,0.00,CLR,,0.00,0.0,WeatherDisplay:10.37,2013-09-21 05:00:00,
2013-09-21 06:05:00,50.1,48.2,30.05,SSW,201,5.0,10.0,93,0.00,CLR,,0.00,0.0,WeatherDisplay:10.37,2013-09-21 05:05:00,
2013-09-21 06:10:00,50.1,48.2,30.05,SSW,200,5.0,7.0,93,0.00,CLR,,0.00,0.0,WeatherDisplay:10.37,2013-09-21 05:10:00,
2013-09-21 06:15:00,50.1,48.2,30.04,SSW,196,7.0,13.0,93,0.00,CLR,,0.00,0.0,WeatherDisplay:10.37,2013-09-21 05:15:00,
2013-09-21 06:20:00,50.2,48.3,30.04,SSW,198,5.0,13.0,93,0.00,CLR,,0.00,0.0,WeatherDisplay:10.37,2013-09-21 05:20:00,
2013-09-21 06:25:00,50.3,48.4,30.04,SSW,200,5.0,13.0,93,0.00,CLR,,0.00,0.0,WeatherDisplay:10.37,2013-09-21 05:25:00,
2013-09-21 06:30:00,50.3,48.3,30.04,SSW,202,6.0,12.0,93,0.00,OVC,,0.00,0.0,WeatherDisplay:10.37,2013-09-21 05:30:00,
2013-09-21 06:35:00,50.3,48.4,30.04,SSW,201,3.0,13.0,93,0.00,OVC,,0.00,0.0,WeatherDisplay:10.37,2013-09-21 05:35:00,
2013-09-21 06:40:00,50.2,48.0,30.04,SSW,206,5.0,13.0,92,0.00,OVC,,0.00,0.0,WeatherDisplay:10.37,2013-09-21 05:40:00,
2013-09-21 06:45:00,50.3,48.3,30.04,SW,217,6.0,14.0,93,0.00,OVC,,0.00,0.0,WeatherDisplay:10.37,2013-09-21 05:45:00,
2013-09-21 06:50:00,50.2,48.0,30.04,SW,214,7.0,12.0,92,0.00,OVC,,0.00,0.0,WeatherDisplay:10.37,2013-09-21 05:50:00,
2013-09-21 06:55:00,50.2,48.0,30.04,SSW,204,6.0,9.0,92,0.00,OVC,,0.00,0.0,WeatherDisplay:10.37,2013-09-21 05:55:00,
2013-09-21 07:00:00,50.3,48.3,30.04,SSW,207,6.0,12.0,93,0.00,OVC,,0.00,0.0,WeatherDisplay:10.37,2013-09-21 06:00:00,
2013-09-21 07:05:00,50.3,48.1,30.04,SW,214,6.0,12.0,92,0.00,OVC,,0.00,0.0,WeatherDisplay:10.37,2013-09-21 06:05:00,
2013-09-21 07:10:00,50.3,48.4,30.04,SSW,212,3.0,8.0,93,0.00,OVC,,0.00,0.0,WeatherDisplay:10.37,2013-09-21 06:10:00,
2013-09-21 07:20:00,50.5,48.5,30.05,SW,215,3.0,9.0,93,0.00,BKN,,0.00,9.0,WeatherDisplay:10.37,2013-09-21 06:20:00,
2013-09-21 07:25:00,50.5,48.6,30.04,SSW,207,5.0,8.0,93,0.00,BKN,,0.00,16.0,WeatherDisplay:10.37,2013-09-21 06:25:00,
2013-09-21 07:30:00,50.6,48.7,30.05,SSW,212,2.0,14.0,93,0.00,BKN,,0.00,14.0,WeatherDisplay:10.37,2013-09-21 06:30:00,
2013-09-21 07:35:00,50.7,48.7,30.05,SW,218,2.0,6.0,93,0.00,BKN,,0.00,25.0,WeatherDisplay:10.37,2013-09-21 06:35:00,
2013-09-21 07:40:00,50.8,48.8,30.05,SW,215,2.0,6.0,93,0.00,BKN,,0.00,26.0,WeatherDisplay:10.37,2013-09-21 06:40:00,
2013-09-21 07:45:00,50.9,48.9,30.05,SW,216,3.0,10.0,93,0.00,BKN,,0.00,30.0,WeatherDisplay:10.37,2013-09-21 06:45:00,
2013-09-21 07:50:00,51.0,49.0,30.05,SSW,210,2.0,10.0,93,0.00,BKN,,0.00,30.0,WeatherDisplay:10.37,2013-09-21 06:50:00,
2013-09-21 07:55:00,51.2,49.2,30.05,SSW,208,6.0,9.0,93,0.00,BKN,,0.00,26.0,WeatherDisplay:10.37,2013-09-21 06:55:00,
2013-09-21 08:00:00,51.4,49.4,30.05,SSW,193,5.0,8.0,93,0.00,BKN,,0.00,33.0,WeatherDisplay:10.37,2013-09-21 07:00:00,
2013-09-21 08:05:00,51.5,49.5,30.06,SSW,200,6.0,9.0,93,0.00,BKN,,0.00,26.0,WeatherDisplay:10.37,2013-09-21 07:05:00,
2013-09-21 08:10:00,51.7,49.4,30.06,SSW,201,6.0,10.0,92,0.00,BKN,,0.00,26.0,WeatherDisplay:10.37,2013-09-21 07:10:00,
2013-09-21 08:15:00,51.8,49.5,30.05,SSW,208,3.0,9.0,92,0.00,BKN,,0.00,39.0,WeatherDisplay:10.37,2013-09-21 07:15:00,
2013-09-21 08:20:00,51.9,49.6,30.05,SSW,202,5.0,8.0,92,0.00,BKN,,0.00,58.0,WeatherDisplay:10.37,2013-09-21 07:20:00,
2013-09-21 08:25:00,52.1,49.8,30.05,SSW,195,5.0,9.0,92,0.00,BKN,,0.00,72.0,WeatherDisplay:10.37,2013-09-21 07:25:00,
2013-09-21 08:30:00,52.3,50.0,30.05,SSW,196,5.0,10.0,92,0.00,BKN,,0.00,60.0,WeatherDisplay:10.37,2013-09-21 07:30:00,
2013-09-21 08:35:00,52.4,50.1,30.05,SSW,205,2.0,8.0,92,0.00,BKN,,0.00,70.0,WeatherDisplay:10.37,2013-09-21 07:35:00,
2013-09-21 08:40:00,52.6,50.3,30.06,SSW,209,5.0,7.0,92,0.00,BKN,,0.00,86.0,WeatherDisplay:10.37,2013-09-21 07:40:00,
2013-09-21 08:45:00,52.7,50.5,30.06,SSW,212,5.0,10.0,92,0.00,BKN,,0.00,72.0,WeatherDisplay:10.37,2013-09-21 07:45:00,
2013-09-21 08:50:00,52.9,50.6,30.06,SW,220,2.0,7.0,92,0.00,BKN,,0.00,60.0,WeatherDisplay:10.37,2013-09-21 07:50:00,
2013-09-21 08:55:00,53.0,50.7,30.06,SSW,210,2.0,9.0,92,0.00,BKN,,0.00,67.0,WeatherDisplay:10.37,2013-09-21 07:55:00,
2013-09-21 09:00:00,53.1,50.5,30.06,SSW,202,3.0,7.0,91,0.00,BKN,,0.00,72.0,WeatherDisplay:10.37,2013-09-21 08:00:00,
2013-09-21 09:10:00,53.3,51.0,30.06,SW,214,5.0,8.0,92,0.00,BKN,,0.00,100.0,WeatherDisplay:10.37,2013-09-21 08:10:00,
2013-09-21 09:20:00,53.6,51.3,30.06,SSW,210,3.0,8.0,92,0.00,BKN,,0.00,111.0,WeatherDisplay:10.37,2013-09-21 08:20:00,
2013-09-21 09:25:00,53.8,51.3,30.06,SSW,211,3.0,7.0,91,0.00,BKN,,0.00,171.0,WeatherDisplay:10.37,2013-09-21 08:25:00,
2013-09-21 09:30:00,54.1,51.8,30.07,SSW,208,2.0,5.0,92,0.00,BKN,,0.00,107.0,WeatherDisplay:10.37,2013-09-21 08:30:00,
2013-09-21 09:35:00,54.4,51.8,30.07,SSW,208,3.0,7.0,91,0.00,BKN,,0.00,91.0,WeatherDisplay:10.37,2013-09-21 08:35:00,
2013-09-21 09:40:00,54.6,52.1,30.07,SSW,202,3.0,8.0,91,0.00,BKN,,0.00,105.0,WeatherDisplay:10.37,2013-09-21 08:40:00,
2013-09-21 09:50:00,55.1,52.2,30.07,SSW,207,5.0,10.0,90,0.00,BKN,,0.00,120.0,WeatherDisplay:10.37,2013-09-21 08:50:00,
2013-09-21 09:55:00,55.3,52.4,30.07,SW,216,5.0,8.0,90,0.00,BKN,,0.00,125.0,WeatherDisplay:10.37,2013-09-21 08:55:00,
2013-09-21 10:00:00,55.6,52.7,30.07,SW,214,5.0,8.0,90,0.00,BKN,,0.00,128.0,WeatherDisplay:10.37,2013-09-21 09:00:00,
2013-09-21 10:05:00,55.8,52.6,30.07,SSW,199,3.0,8.0,89,0.00,BKN,,0.00,120.0,WeatherDisplay:10.37,2013-09-21 09:05:00,
2013-09-21 10:10:00,56.0,52.8,30.07,SSW,200,3.0,9.0,89,0.00,BKN,,0.00,98.0,WeatherDisplay:10.37,2013-09-21 09:10:00,
2013-09-21 10:20:00,56.3,52.8,30.07,SW,214,6.0,12.0,88,0.00,BKN,,0.00,81.0,WeatherDisplay:10.37,2013-09-21 09:20:00,
2013-09-21 10:25:00,56.4,52.9,30.07,SSW,192,3.0,8.0,88,0.00,BKN,,0.00,95.0,WeatherDisplay:10.37,2013-09-21 09:25:00,
2013-09-21 10:30:00,56.5,53.0,30.07,SSW,200,6.0,11.0,88,0.00,BKN,,0.00,90.0,WeatherDisplay:10.37,2013-09-21 09:30:00,
2013-09-21 10:35:00,56.5,53.0,30.08,SSW,204,3.0,9.0,88,0.00,BKN,,0.00,65.0,WeatherDisplay:10.37,2013-09-21 09:35:00,
2013-09-21 10:40:00,56.6,53.1,30.08,SSW,194,5.0,12.0,88,0.00,BKN,,0.00,62.0,WeatherDisplay:10.37,2013-09-21 09:40:00,
2013-09-21 10:45:00,56.6,53.1,30.08,SSW,200,5.0,9.0,88,0.00,BKN,,0.00,58.0,WeatherDisplay:10.37,2013-09-21 09:45:00,
2013-09-21 10:50:00,56.6,53.1,30.08,SSW,192,2.0,8.0,88,0.00,BKN,,0.00,74.0,WeatherDisplay:10.37,2013-09-21 09:50:00,
2013-09-21 10:55:00,56.6,53.4,30.07,South,185,2.0,8.0,89,0.00,BKN,,0.00,91.0,WeatherDisplay:10.37,2013-09-21 09:55:00,
2013-09-21 11:05:00,56.7,53.5,30.08,SSW,204,5.0,8.0,89,0.00,BKN,,0.00,70.0,WeatherDisplay:10.37,2013-09-21 10:05:00,
2013-09-21 11:10:00,56.8,53.6,30.08,SSW,210,3.0,8.0,89,0.00,BKN,,0.00,105.0,WeatherDisplay:10.37,2013-09-21 10:10:00,
2013-09-21 11:15:00,56.9,53.7,30.08,SSW,201,2.0,7.0,89,0.00,BKN,,0.00,102.0,WeatherDisplay:10.37,2013-09-21 10:15:00,
2013-09-21 11:20:00,57.0,53.5,30.08,SSW,208,3.0,7.0,88,0.00,BKN,,0.00,111.0,WeatherDisplay:10.37,2013-09-21 10:20:00,
2013-09-21 11:25:00,57.2,54.0,30.07,SSW,208,3.0,6.0,89,0.00,BKN,,0.00,109.0,WeatherDisplay:10.37,2013-09-21 10:25:00,
2013-09-21 11:30:00,57.3,53.8,30.07,SSW,199,2.0,7.0,88,0.00,BKN,,0.00,121.0,WeatherDisplay:10.37,2013-09-21 10:30:00,
2013-09-21 11:35:00,57.4,53.9,30.07,SSW,204,3.0,8.0,88,0.00,BKN,,0.00,105.0,WeatherDisplay:10.37,2013-09-21 10:35:00,
2013-09-21 11:40:00,57.6,54.1,30.08,SSW,210,5.0,9.0,88,0.00,BKN,,0.00,97.0,WeatherDisplay:10.37,2013-09-21 10:40:00,
2013-09-21 11:45:00,57.7,54.2,30.08,SSW,212,6.0,11.0,88,0.00,BKN,,0.00,86.0,WeatherDisplay:10.37,2013-09-21 10:45:00,
2013-09-21 11:50:00,57.7,54.2,30.08,SW,221,9.0,15.0,88,0.00,BKN,,0.00,77.0,WeatherDisplay:10.37,2013-09-21 10:50:00,
2013-09-21 11:55:00,57.8,54.3,30.08,SW,221,7.0,12.0,88,0.00,BKN,,0.00,72.0,WeatherDisplay:10.37,2013-09-21 10:55:00,
2013-09-21 12:00:00,57.8,54.0,30.08,SW,225,5.0,12.0,87,0.00,BKN,,0.00,93.0,WeatherDisplay:10.37,2013-09-21 11:00:00,
2013-09-21 12:10:00,58.0,54.4,30.08,SW,217,7.0,10.0,88,0.00,BKN,,0.00,100.0,WeatherDisplay:10.37,2013-09-21 11:10:00,
2013-09-21 12:20:00,58.1,54.5,30.08,SW,223,3.0,9.0,88,0.00,BKN,,0.00,100.0,WeatherDisplay:10.37,2013-09-21 11:20:00,
2013-09-21 12:25:00,58.1,54.6,30.08,SW,222,2.0,8.0,88,0.00,BKN,,0.00,79.0,WeatherDisplay:10.37,2013-09-21 11:25:00,
2013-09-21 12:35:00,58.3,54.8,30.08,SW,217,6.0,7.0,88,0.00,BKN,,0.00,104.0,WeatherDisplay:10.37,2013-09-21 11:35:00,
2013-09-21 12:40:00,58.4,54.8,30.08,SSW,212,5.0,7.0,88,0.00,BKN,,0.00,98.0,WeatherDisplay:10.37,2013-09-21 11:40:00,
2013-09-21 12:45:00,58.4,54.9,30.08,SW,222,3.0,9.0,88,0.00,BKN,,0.00,90.0,WeatherDisplay:10.37,2013-09-21 11:45:00,
2013-09-21 12:50:00,58.5,55.0,30.09,SW,219,3.0,8.0,88,0.00,BKN,,0.00,77.0,WeatherDisplay:10.37,2013-09-21 11:50:00,
2013-09-21 13:00:00,58.7,55.2,30.09,SW,221,2.0,6.0,88,0.00,BKN,,0.00,74.0,WeatherDisplay:10.37,2013-09-21 12:00:00,
2013-09-21 13:05:00,58.8,55.3,30.09,SW,222,5.0,7.0,88,0.00,BKN,,0.00,76.0,WeatherDisplay:10.37,2013-09-21 12:05:00,
2013-09-21 13:10:00,58.8,55.3,30.09,SW,214,3.0,5.0,88,0.00,BKN,,0.00,67.0,WeatherDisplay:10.37,2013-09-21 12:10:00,
2013-09-21 13:15:00,58.9,55.3,30.09,SW,214,6.0,7.0,88,0.00,BKN,,0.00,63.0,WeatherDisplay:10.37,2013-09-21 12:15:00,
2013-09-21 13:20:00,58.9,55.4,30.08,SW,222,3.0,5.0,88,0.00,BKN,,0.00,54.0,WeatherDisplay:10.37,2013-09-21 12:20:00,
2013-09-21 13:25:00,58.9,55.4,30.08,SW,223,2.0,5.0,88,0.00,BKN,,0.00,56.0,WeatherDisplay:10.37,2013-09-21 12:25:00,
2013-09-21 13:30:00,59.0,55.4,30.08,SSW,211,3.0,6.0,88,0.00,BKN,,0.00,56.0,WeatherDisplay:10.37,2013-09-21 12:30:00,
2013-09-21 13:35:00,59.0,55.4,30.08,SSW,211,5.0,8.0,88,0.00,BKN,,0.00,47.0,WeatherDisplay:10.37,2013-09-21 12:35:00,
2013-09-21 13:40:00,58.9,55.7,30.08,SW,216,3.0,6.0,89,0.00,BKN,,0.00,54.0,WeatherDisplay:10.37,2013-09-21 12:40:00,
2013-09-21 13:45:00,58.9,55.7,30.08,SW,218,5.0,8.0,89,0.00,BKN,,0.00,51.0,WeatherDisplay:10.37,2013-09-21 12:45:00,
2013-09-21 13:50:00,58.9,55.7,30.09,SW,218,3.0,6.0,89,0.00,BKN,,0.00,54.0,WeatherDisplay:10.37,2013-09-21 12:50:00,
2013-09-21 13:55:00,58.9,55.7,30.08,SSW,211,1.0,5.0,89,0.00,BKN,,0.00,60.0,WeatherDisplay:10.37,2013-09-21 12:55:00,
2013-09-21 14:05:00,59.0,55.8,30.08,SW,214,0.0,5.0,89,0.00,BKN,,0.00,56.0,WeatherDisplay:10.37,2013-09-21 13:05:00,
2013-09-21 14:10:00,59.1,56.2,30.08,SW,217,3.0,6.0,90,0.00,BKN,,0.00,58.0,WeatherDisplay:10.37,2013-09-21 13:10:00,
2013-09-21 14:15:00,59.1,56.2,30.08,SW,215,3.0,6.0,90,0.00,BKN,,0.00,56.0,WeatherDisplay:10.37,2013-09-21 13:15:00,
2013-09-21 14:20:00,59.1,56.2,30.09,SW,222,2.0,5.0,90,0.00,BKN,,0.00,70.0,WeatherDisplay:10.37,2013-09-21 13:20:00,
2013-09-21 14:25:00,59.2,56.3,30.08,SW,222,1.0,4.0,90,0.00,BKN,,0.00,77.0,WeatherDisplay:10.37,2013-09-21 13:25:00,
2013-09-21 14:30:00,59.3,56.4,30.08,SW,217,3.0,7.0,90,0.00,BKN,,0.00,62.0,WeatherDisplay:10.37,2013-09-21 13:30:00,
2013-09-21 14:35:00,59.4,56.5,30.08,SW,216,5.0,8.0,90,0.00,BKN,,0.00,47.0,WeatherDisplay:10.37,2013-09-21 13:35:00,
2013-09-21 14:40:00,59.4,56.5,30.08,SSW,207,6.0,10.0,90,0.00,BKN,,0.00,56.0,WeatherDisplay:10.37,2013-09-21 13:40:00,
2013-09-21 14:45:00,59.4,56.2,30.08,SSW,205,2.0,9.0,89,0.00,BKN,,0.00,62.0,WeatherDisplay:10.37,2013-09-21 13:45:00,
2013-09-21 14:50:00,59.5,56.3,30.08,SSW,210,5.0,7.0,89,0.00,BKN,,0.00,74.0,WeatherDisplay:10.37,2013-09-21 13:50:00,
2013-09-21 14:55:00,59.5,56.6,30.08,SW,217,5.0,7.0,90,0.00,BKN,,0.00,84.0,WeatherDisplay:10.37,2013-09-21 13:55:00,
2013-09-21 15:05:00,59.7,56.8,30.09,SW,214,5.0,8.0,90,0.00,BKN,,0.00,81.0,WeatherDisplay:10.37,2013-09-21 14:05:00,
2013-09-21 15:10:00,59.8,56.9,30.09,SW,215,6.0,10.0,90,0.00,BKN,,0.00,128.0,WeatherDisplay:10.37,2013-09-21 14:10:00,
2013-09-21 15:15:00,59.9,57.3,30.09,SSW,208,3.0,8.0,91,0.00,BKN,,0.00,134.0,WeatherDisplay:10.37,2013-09-21 14:15:00,
2013-09-21 15:20:00,60.0,57.7,30.08,SW,215,5.0,7.0,92,0.00,BKN,,0.00,83.0,WeatherDisplay:10.37,2013-09-21 14:20:00,
2013-09-21 15:25:00,59.9,57.6,30.08,SSW,213,5.0,8.0,92,0.00,BKN,,0.00,72.0,WeatherDisplay:10.37,2013-09-21 14:25:00,
2013-09-21 15:30:00,59.9,57.5,30.08,SW,218,5.0,8.0,92,0.00,BKN,,0.00,69.0,WeatherDisplay:10.37,2013-09-21 14:30:00,
2013-09-21 15:35:00,59.8,57.8,30.08,SW,227,2.0,5.0,93,0.00,BKN,,0.00,97.0,WeatherDisplay:10.37,2013-09-21 14:35:00,
2013-09-21 15:40:00,59.8,57.8,30.08,SW,225,3.0,6.0,93,0.00,BKN,,0.00,109.0,WeatherDisplay:10.37,2013-09-21 14:40:00,
2013-09-21 15:45:00,59.8,57.8,30.08,SW,223,2.0,5.0,93,0.00,BKN,,0.00,98.0,WeatherDisplay:10.37,2013-09-21 14:45:00,
2013-09-21 15:50:00,59.8,58.1,30.08,SW,232,5.0,9.0,94,0.00,BKN,,0.00,63.0,WeatherDisplay:10.37,2013-09-21 14:50:00,
2013-09-21 15:55:00,59.8,58.1,30.08,SW,236,3.0,6.0,94,0.00,BKN,,0.00,74.0,WeatherDisplay:10.37,2013-09-21 14:55:00,
2013-09-21 16:00:00,59.8,58.1,30.07,SW,223,5.0,8.0,94,0.00,BKN,,0.00,83.0,WeatherDisplay:10.37,2013-09-21 15:00:00,
2013-09-21 16:05:00,59.9,58.2,30.07,SW,220,6.0,12.0,94,0.00,BKN,,0.00,107.0,WeatherDisplay:10.37,2013-09-21 15:05:00,
2013-09-21 16:10:00,59.9,58.2,30.07,SW,220,5.0,8.0,94,0.00,BKN,,0.00,67.0,WeatherDisplay:10.37,2013-09-21 15:10:00,
2013-09-21 16:15:00,60.0,58.2,30.07,SW,221,6.0,9.0,94,0.00,BKN,,0.00,104.0,WeatherDisplay:10.37,2013-09-21 15:15:00,
2013-09-21 16:20:00,60.0,58.3,30.07,SW,220,5.0,8.0,94,0.00,BKN,,0.00,93.0,WeatherDisplay:10.37,2013-09-21 15:20:00,
2013-09-21 16:30:00,60.2,58.5,30.07,SW,225,6.0,7.0,94,0.00,BKN,,0.00,125.0,WeatherDisplay:10.37,2013-09-21 15:30:00,
2013-09-21 16:35:00,60.4,58.4,30.08,SW,228,6.0,10.0,93,0.00,BKN,,0.00,127.0,WeatherDisplay:10.37,2013-09-21 15:35:00,
2013-09-21 16:40:00,60.6,58.6,30.07,SW,227,3.0,11.0,93,0.00,SCT,,0.00,200.0,WeatherDisplay:10.37,2013-09-21 15:40:00,
2013-09-21 16:45:00,60.9,58.9,30.08,SW,234,3.0,8.0,93,0.00,SCT,,0.00,142.0,WeatherDisplay:10.37,2013-09-21 15:45:00,
2013-09-21 16:55:00,61.4,58.4,30.08,SW,229,8.0,12.0,90,0.00,SCT,,0.00,111.0,WeatherDisplay:10.37,2013-09-21 15:55:00,
2013-09-21 17:00:00,61.6,58.3,30.08,SW,233,5.0,14.0,89,0.00,BKN,,0.00,84.0,WeatherDisplay:10.37,2013-09-21 16:00:00,
2013-09-21 17:05:00,61.7,58.1,30.08,SW,228,8.0,10.0,88,0.00,BKN,,0.00,113.0,WeatherDisplay:10.37,2013-09-21 16:05:00,
2013-09-21 17:10:00,61.8,58.2,30.08,SW,228,7.0,10.0,88,0.00,BKN,,0.00,109.0,WeatherDisplay:10.37,2013-09-21 16:10:00,
2013-09-21 17:15:00,61.8,57.9,30.08,SW,220,6.0,10.0,87,0.00,SCT,,0.00,98.0,WeatherDisplay:10.37,2013-09-21 16:15:00,
2013-09-21 17:20:00,61.8,57.6,30.08,SW,219,8.0,12.0,86,0.00,BKN,,0.00,76.0,WeatherDisplay:10.37,2013-09-21 16:20:00,
2013-09-21 17:25:00,61.7,57.5,30.08,SW,216,6.0,12.0,86,0.00,BKN,,0.00,53.0,WeatherDisplay:10.37,2013-09-21 16:25:00,
2013-09-21 17:30:00,61.6,57.0,30.08,SW,217,8.0,13.0,85,0.00,BKN,,0.00,39.0,WeatherDisplay:10.37,2013-09-21 16:30:00,
2013-09-21 17:35:00,61.5,56.9,30.08,SW,223,7.0,12.0,85,0.00,BKN,,0.00,33.0,WeatherDisplay:10.37,2013-09-21 16:35:00,
2013-09-21 17:40:00,61.5,56.9,30.08,SW,228,6.0,12.0,85,0.00,BKN,,0.00,42.0,WeatherDisplay:10.37,2013-09-21 16:40:00,
2013-09-21 17:45:00,61.4,56.8,30.08,SW,232,6.0,10.0,85,0.00,BKN,,0.00,37.0,WeatherDisplay:10.37,2013-09-21 16:45:00,
2013-09-21 17:50:00,61.4,57.2,30.08,SW,228,6.0,9.0,86,0.00,BKN,,0.00,47.0,WeatherDisplay:10.37,2013-09-21 16:50:00,
2013-09-21 17:55:00,61.4,57.2,30.08,SW,231,5.0,12.0,86,0.00,BKN,,0.00,46.0,WeatherDisplay:10.37,2013-09-21 16:55:00,
2013-09-21 18:00:00,61.4,57.5,30.08,SW,221,7.0,12.0,87,0.00,BKN,,0.00,56.0,WeatherDisplay:10.37,2013-09-21 17:00:00,
2013-09-21 18:05:00,61.4,57.5,30.08,SW,218,9.0,16.0,87,0.00,BKN,,0.00,32.0,WeatherDisplay:10.37,2013-09-21 17:05:00,
2013-09-21 18:10:00,61.3,57.7,30.08,SW,217,8.0,14.0,88,0.00,BKN,,0.00,46.0,WeatherDisplay:10.37,2013-09-21 17:10:00,
2013-09-21 18:15:00,61.2,57.6,30.08,SW,217,7.0,15.0,88,0.00,BKN,,0.00,30.0,WeatherDisplay:10.37,2013-09-21 17:15:00,
2013-09-21 18:20:00,61.1,57.8,30.08,SW,219,6.0,16.0,89,0.00,BKN,,0.00,19.0,WeatherDisplay:10.37,2013-09-21 17:20:00,
2013-09-21 18:25:00,60.9,57.6,30.08,SW,214,7.0,16.0,89,0.00,BKN,,0.00,18.0,WeatherDisplay:10.37,2013-09-21 17:25:00,
2013-09-21 18:30:00,60.8,57.8,30.08,SW,216,6.0,12.0,90,0.00,BKN,,0.00,23.0,WeatherDisplay:10.37,2013-09-21 17:30:00,
2013-09-21 18:35:00,60.7,57.7,30.08,SW,216,7.0,12.0,90,0.00,BKN,,0.00,16.0,WeatherDisplay:10.37,2013-09-21 17:35:00,
2013-09-21 18:40:00,60.7,57.7,30.08,SSW,212,7.0,14.0,90,0.00,BKN,,0.00,14.0,WeatherDisplay:10.37,2013-09-21 17:40:00,
2013-09-21 18:45:00,60.6,58.0,30.08,SW,226,6.0,12.0,91,0.00,BKN,,0.00,12.0,WeatherDisplay:10.37,2013-09-21 17:45:00,
2013-09-21 18:50:00,60.6,58.0,30.08,SW,224,7.0,12.0,91,0.00,BKN,,0.00,11.0,WeatherDisplay:10.37,2013-09-21 17:50:00,
2013-09-21 19:00:00,60.5,57.9,30.08,SW,222,9.0,16.0,91,0.00,BKN,,0.00,7.0,WeatherDisplay:10.37,2013-09-21 18:00:00,
2013-09-21 19:05:00,60.5,57.9,30.08,SW,218,8.0,14.0,91,0.00,BKN,,0.00,7.0,WeatherDisplay:10.37,2013-09-21 18:05:00,
2013-09-21 19:10:00,60.5,57.9,30.08,SSW,208,8.0,15.0,91,0.00,OVC,,0.00,0.0,WeatherDisplay:10.37,2013-09-21 18:10:00,
2013-09-21 19:15:00,60.5,58.2,30.09,SSW,213,8.0,14.0,92,0.00,OVC,,0.00,0.0,WeatherDisplay:10.37,2013-09-21 18:15:00,
2013-09-21 19:20:00,60.5,58.2,30.09,SSW,212,8.0,13.0,92,0.00,OVC,,0.00,0.0,WeatherDisplay:10.37,2013-09-21 18:20:00,
2013-09-21 19:25:00,60.5,58.2,30.09,SW,215,9.0,14.0,92,0.00,OVC,,0.00,0.0,WeatherDisplay:10.37,2013-09-21 18:25:00,
2013-09-21 19:30:00,60.5,58.2,30.09,SW,219,8.0,13.0,92,0.00,OVC,,0.00,0.0,WeatherDisplay:10.37,2013-09-21 18:30:00,
2013-09-21 19:35:00,60.5,58.2,30.09,SW,216,8.0,15.0,92,0.00,OVC,,0.00,0.0,WeatherDisplay:10.37,2013-09-21 18:35:00,
2013-09-21 19:40:00,60.6,58.3,30.09,SW,216,10.0,18.0,92,0.00,OVC,,0.00,0.0,WeatherDisplay:10.37,2013-09-21 18:40:00,
2013-09-21 19:45:00,60.7,58.4,30.09,SW,216,8.0,15.0,92,0.00,OVC,,0.00,0.0,WeatherDisplay:10.37,2013-09-21 18:45:00,
2013-09-21 19:50:00,60.6,58.3,30.09,SSW,212,9.0,14.0,92,0.00,CLR,,0.00,0.0,WeatherDisplay:10.37,2013-09-21 18:50:00,
2013-09-21 19:55:00,60.4,58.4,30.09,SW,218,5.0,10.0,93,0.00,CLR,,0.00,0.0,WeatherDisplay:10.37,2013-09-21 18:55:00,
2013-09-21 20:05:00,60.2,58.2,30.09,SW,214,7.0,13.0,93,0.00,CLR,,0.00,0.0,WeatherDisplay:10.37,2013-09-21 19:05:00,
2013-09-21 20:15:00,60.1,58.4,30.10,SW,218,8.0,13.0,94,0.00,CLR,,0.00,0.0,WeatherDisplay:10.37,2013-09-21 19:15:00,
2013-09-21 20:25:00,60.2,58.5,30.10,SW,222,8.0,14.0,94,0.00,CLR,,0.00,0.0,WeatherDisplay:10.37,2013-09-21 19:25:00,
2013-09-21 20:30:00,60.1,58.4,30.10,SW,218,6.0,9.0,94,0.00,CLR,,0.00,0.0,WeatherDisplay:10.37,2013-09-21 19:30:00,
2013-09-21 20:35:00,60.1,58.3,30.10,SW,218,6.0,12.0,94,0.00,CLR,,0.00,0.0,WeatherDisplay:10.37,2013-09-21 19:35:00,
2013-09-21 20:40:00,60.0,58.3,30.10,SW,224,7.0,12.0,94,0.00,CLR,,0.00,0.0,WeatherDisplay:10.37,2013-09-21 19:40:00,
2013-09-21 20:45:00,60.0,58.3,30.09,SW,220,8.0,16.0,94,0.00,CLR,,0.00,0.0,WeatherDisplay:10.37,2013-09-21 19:45:00,
2013-09-21 20:50:00,60.0,58.3,30.09,SW,217,7.0,12.0,94,0.00,CLR,,0.00,0.0,WeatherDisplay:10.37,2013-09-21 19:50:00,
2013-09-21 20:55:00,60.0,58.3,30.09,SW,218,9.0,12.0,94,0.00,CLR,,0.00,0.0,WeatherDisplay:10.37,2013-09-21 19:55:00,
2013-09-21 21:00:00,60.0,58.3,30.09,SW,221,9.0,14.0,94,0.00,CLR,,0.00,0.0,WeatherDisplay:10.37,2013-09-21 20:00:00,
2013-09-21 21:10:00,60.2,58.5,30.09,SW,217,8.0,12.0,94,0.00,CLR,,0.00,0.0,WeatherDisplay:10.37,2013-09-21 20:10:00,
2013-09-21 21:15:00,60.2,58.5,30.09,SW,221,10.0,15.0,94,0.00,CLR,,0.00,0.0,WeatherDisplay:10.37,2013-09-21 20:15:00,
2013-09-21 21:20:00,60.3,58.6,30.09,SW,215,6.0,12.0,94,0.00,CLR,,0.00,0.0,WeatherDisplay:10.37,2013-09-21 20:20:00,
2013-09-21 21:25:00,60.3,58.6,30.09,SW,221,7.0,11.0,94,0.00,CLR,,0.00,0.0,WeatherDisplay:10.37,2013-09-21 20:25:00,
2013-09-21 21:30:00,60.3,58.6,30.10,SW,224,7.0,13.0,94,0.00,CLR,,0.00,0.0,WeatherDisplay:10.37,2013-09-21 20:30:00,
2013-09-21 21:35:00,60.3,58.6,30.10,SW,223,8.0,12.0,94,0.00,CLR,,0.00,0.0,WeatherDisplay:10.37,2013-09-21 20:35:00,
2013-09-21 21:40:00,60.4,58.6,30.10,SW,220,9.0,16.0,94,0.00,CLR,,0.00,0.0,WeatherDisplay:10.37,2013-09-21 20:40:00,
2013-09-21 21:45:00,60.4,58.7,30.10,SW,219,8.0,14.0,94,0.00,CLR,,0.00,0.0,WeatherDisplay:10.37,2013-09-21 20:45:00,
2013-09-21 21:50:00,60.5,58.5,30.10,SW,221,8.0,16.0,93,0.00,CLR,,0.00,0.0,WeatherDisplay:10.37,2013-09-21 20:50:00,
2013-09-21 21:55:00,60.5,58.5,30.10,SW,222,10.0,15.0,93,0.00,CLR,,0.00,0.0,WeatherDisplay:10.37,2013-09-21 20:55:00,
2013-09-21 22:00:00,60.6,58.6,30.10,SW,225,8.0,16.0,93,0.00,CLR,,0.00,0.0,WeatherDisplay:10.37,2013-09-21 21:00:00,
2013-09-21 22:05:00,60.6,58.6,30.10,SW,218,10.0,14.0,93,0.00,CLR,,0.00,0.0,WeatherDisplay:10.37,2013-09-21 21:05:00,
2013-09-21 22:10:00,60.7,58.7,30.10,SW,221,10.0,16.0,93,0.00,CLR,,0.00,0.0,WeatherDisplay:10.37,2013-09-21 21:10:00,
2013-09-21 22:15:00,60.8,58.8,30.10,SW,224,7.0,13.0,93,0.00,CLR,,0.00,0.0,WeatherDisplay:10.37,2013-09-21 21:15:00,
2013-09-21 22:20:00,60.8,58.5,30.10,WSW,238,9.0,12.0,92,0.00,CLR,,0.00,0.0,WeatherDisplay:10.37,2013-09-21 21:20:00,
2013-09-21 22:25:00,60.9,58.6,30.11,SW,226,8.0,14.0,92,0.00,CLR,,0.00,0.0,WeatherDisplay:10.37,2013-09-21 21:25:00,
2013-09-21 22:30:00,60.9,58.6,30.11,SW,220,7.0,13.0,92,0.00,CLR,,0.00,0.0,WeatherDisplay:10.37,2013-09-21 21:30:00,
2013-09-21 22:35:00,61.0,58.6,30.11,SW,222,9.0,15.0,92,0.00,CLR,,0.00,0.0,WeatherDisplay:10.37,2013-09-21 21:35:00,
2013-09-21 22:45:00,61.1,58.8,30.11,SW,221,9.0,16.0,92,0.00,CLR,,0.00,0.0,WeatherDisplay:10.37,2013-09-21 21:45:00,
2013-09-21 22:50:00,61.3,58.7,30.11,SW,229,8.0,15.0,91,0.00,CLR,,0.00,0.0,WeatherDisplay:10.37,2013-09-21 21:50:00,
2013-09-21 22:55:00,61.4,58.7,30.11,SW,226,8.0,13.0,91,0.00,CLR,,0.00,0.0,WeatherDisplay:10.37,2013-09-21 21:55:00,
2013-09-21 23:00:00,61.5,58.8,30.11,SW,228,8.0,15.0,91,0.00,CLR,,0.00,0.0,WeatherDisplay:10.37,2013-09-21 22:00:00,
2013-09-21 23:05:00,61.6,59.0,30.11,SW,233,8.0,17.0,91,0.00,CLR,,0.00,0.0,WeatherDisplay:10.37,2013-09-21 22:05:00,
2013-09-21 23:10:00,61.8,58.8,30.11,SW,224,10.0,18.0,90,0.00,CLR,,0.00,0.0,WeatherDisplay:10.37,2013-09-21 22:10:00,
2013-09-21 23:15:00,61.8,58.9,30.11,SW,221,9.0,17.0,90,0.00,CLR,,0.00,0.0,WeatherDisplay:10.37,2013-09-21 22:15:00,
2013-09-21 23:20:00,61.9,59.0,30.11,SW,217,13.0,17.0,90,0.00,CLR,,0.00,0.0,WeatherDisplay:10.37,2013-09-21 22:20:00,
2013-09-21 23:25:00,62.0,59.0,30.10,SW,222,12.0,21.0,90,0.00,CLR,,0.00,0.0,WeatherDisplay:10.37,2013-09-21 22:25:00,
2013-09-21 23:30:00,62.0,59.0,30.11,SW,224,8.0,18.0,90,0.00,CLR,,0.00,0.0,WeatherDisplay:10.37,2013-09-21 22:30:00,
2013-09-21 23:40:00,62.0,59.0,30.11,SW,219,9.0,18.0,90,0.00,CLR,,0.00,0.0,WeatherDisplay:10.37,2013-09-21 22:40:00,
2013-09-21 23:45:00,61.9,59.0,30.10,SSW,213,9.0,15.0,90,0.00,CLR,,0.00,0.0,WeatherDisplay:10.37,2013-09-21 22:45:00,
2013-09-21 23:50:00,61.9,58.9,30.10,SW,220,10.0,20.0,90,0.00,CLR,,0.00,0.0,WeatherDisplay:10.37,2013-09-21 22:50:00,
2013-09-21 23:55:00,61.8,58.8,30.11,SW,221,10.0,20.0,90,0.00,CLR,,0.00,0.0,WeatherDisplay:10.37,2013-09-21 22:55:00,